Погода в Род-Тауне

Британские Виргинские острова     18°25′34″N   64°37′19″W
темп.,
°C
ветер,
м/с
пор.,
м/с
влажн.,
%
обл.,
%
осадки,
мм/ч
давл.,
гПа
погр.,
м
17 октября, вс
вс1723:00+29вюв2276100 0.0 1013540
02:00+29юв227648 0.0 1012575
05:00+28ююв11775 1.7 101262
08:00+28юв11765 2.4 1014283
11:00+29ююв22735 0.0 1014580
14:00+29ю227029 0.0 1012739
17:00+29юв006914 0.3 1012737
20:00+29юв117163 0.3 1013614
18 октября, пн
пн1823:00+29вюв21735 0.0 1013550
02:00+28юв117387 0.0 1012508
05:00+28всв11749 0.1 1012475
08:00+28в227513 0.1 1013389
11:00+28юв227465 0.2 1014428
14:00+28в22739 1.6 1012548
17:00+29в22715 0.1 1012768
20:00+28всв33725 0.1 1013748
19 октября, вт
вт1923:00+28в33735 0.0 1013779
02:00+28всв33748 0.0 1012759
05:00+28всв33755 0.0 1013676
08:00+28всв447685 0.0 1015712
11:00+28всв447491 0.0 1015836
14:00+28всв447285 0.1 1013855
17:00+28всв557468 0.0 1013887
20:00+28всв66755 0.1 1015887
20 октября, ср
ср2023:00+28в66757 0.1 1015910
02:00+28в66768 0.4 1014839
05:00+28в66765 0.7 1014842
08:00+28в777611 1.9 1016832
11:00+28в777610 0.8 1016925
14:00+28в787650 0.9 1015906
17:00+28вюв7777100 0.3 1014880
20:00+28в777724 1.1 1016853
21 октября, чт
чт2123:00+28в8877100 1.3 1016898
02:00+28вюв8972100 3.6 10151140
05:00+28вюв886658 0.0 10151264
08:00+28в7868100 0.1 10171351
11:00+28в787397 0.1 1017857
14:00+28в897595 0.7 1015989
17:00+28в897683 1.1 1015942
20:00+28вюв997582 1.4 10161040